Total_Precipitation_Accumulation
0.14 0.24 0.28 0.26 0.24 0.20 0.16 0.13 0.23 0.28 0.41 0.51 0.56 0.70 0.91 1.08 1.06 0.99 0.81 0.71 0.79 0.80 0.86 0.92 1.00 1.06 0.95 0.96 1.01 1.16 1.37 1.47 1.60 1.60 1.57 1.56 1.62 1.67 1.68 1.76 1.75 1.82 1.89 1.92
0.18 0.22 0.27 0.29 0.27 0.20 0.14 0.13 0.17 0.27 0.42 0.55 0.62 0.74 0.89 0.89 0.79 0.70 0.62 0.52 0.50 0.68 0.78 0.75 0.79 0.87 0.78 0.82 0.96 1.11 1.21 1.31 1.54 1.67 1.68 1.67 1.71 1.82 1.86 1.84 1.83 1.87 1.83 1.88
0.28 0.28 0.28 0.36 0.34 0.26 0.16 0.15 0.22 0.34 0.52 0.70 0.61 0.63 0.72 0.75 0.73 0.67 0.64 0.49 0.45 0.54 0.71 0.71 0.72 0.73 0.82 0.95 1.09 1.19 1.34 1.48 1.66 1.76 1.84 1.85 1.81 1.94 1.90 1.90 1.96 1.91 1.85 1.85
0.37 0.48 0.55 0.39 0.32 0.31 0.30 0.28 0.29 0.42 0.45 0.61 0.63 0.66 0.78 0.79 0.79 0.65 0.58 0.51 0.50 0.50 0.53 0.60 0.66 0.73 0.88 1.18 1.43 1.48 1.62 1.82 1.91 2.01 1.96 1.93 1.93 1.96 2.04 2.12 2.14 2.11 2.06 1.97
0.53 0.66 0.56 0.48 0.34 0.38 0.43 0.57 0.58 0.67 0.65 0.61 0.61 0.72 0.81 0.70 0.64 0.66 0.56 0.51 0.54 0.60 0.63 0.71 0.78 0.81 1.00 1.24 1.55 1.73 1.79 1.89 2.03 2.12 2.16 2.16 2.17 2.14 2.22 2.33 2.28 2.19 2.13 2.14
0.67 0.82 0.79 0.66 0.50 0.49 0.61 1.07 0.89 0.83 0.86 0.75 0.72 0.88 0.97 0.89 0.81 0.75 0.67 0.63 0.65 0.68 0.81 0.99 1.07 1.10 1.22 1.35 1.50 1.69 1.77 1.88 2.05 2.27 2.32 2.33 2.47 2.56 2.51 2.46 2.31 2.31 2.30 2.26
0.82 0.89 0.96 0.80 0.71 0.74 1.17 1.47 1.13 0.97 0.96 0.95 1.06 1.11 1.06 0.93 0.92 0.84 0.74 0.75 0.73 0.76 0.91 1.15 1.29 1.33 1.43 1.59 1.69 1.71 1.79 1.94 2.12 2.29 2.37 2.45 2.61 2.68 2.65 2.58 2.54 2.48 2.40 2.45
0.99 1.18 1.35 0.93 0.88 1.30 1.58 1.32 1.32 1.31 1.26 1.17 1.14 1.09 1.05 0.94 0.91 0.84 0.80 0.85 0.87 0.93 1.08 1.29 1.46 1.44 1.51 1.61 1.66 1.71 1.72 1.86 2.00 2.15 2.17 2.26 2.52 2.60 2.67 2.68 2.61 2.51 2.45 2.33
1.34 1.46 1.33 1.10 1.17 1.34 1.47 1.62 1.53 1.43 1.44 1.26 1.24 1.14 1.05 0.97 0.92 0.87 0.83 0.89 0.96 1.03 1.19 1.43 1.60 1.63 1.71 1.62 1.70 1.75 1.78 1.92 2.08 2.16 2.21 2.31 2.41 2.44 2.52 2.56 2.49 2.37 2.39 2.34
1.58 1.61 1.50 1.34 1.18 1.09 1.22 1.34 1.32 1.31 1.30 1.25 1.22 1.16 1.07 0.98 0.91 0.90 0.89 0.84 0.90 1.01 1.09 1.19 1.39 1.57 1.69 1.74 1.80 1.81 1.84 1.92 2.02 2.14 2.15 2.22 2.33 2.42 2.51 2.59 2.65 2.53 2.40 2.30
1.82 1.71 1.58 1.55 1.39 1.27 1.34 1.42 1.35 1.27 1.24 1.26 1.22 1.15 1.01 0.98 0.96 0.93 0.92 0.87 0.90 0.98 1.01 1.07 1.16 1.30 1.39 1.52 1.65 1.71 1.78 1.85 1.89 1.94 2.05 2.16 2.19 2.27 2.26 2.33 2.35 2.32 2.24 2.21
2.13 1.85 1.70 1.64 1.49 1.35 1.41 1.39 1.48 1.57 1.53 1.31 1.20 1.28 1.20 1.07 0.98 0.96 0.96 0.95 0.97 1.00 0.99 1.00 1.07 1.23 1.35 1.45 1.60 1.73 1.80 1.84 1.78 1.74 1.82 1.89 1.96 1.96 1.98 1.91 1.91 1.86 1.87 1.85
1.76 1.55 1.51 1.49 1.43 1.35 1.34 1.28 1.29 1.42 1.47 1.36 1.31 1.29 1.34 1.26 1.17 1.08 1.00 0.92 0.93 0.98 0.99 1.02 1.08 1.18 1.28 1.38 1.48 1.61 1.72 1.78 1.77 1.74 1.78 1.78 1.82 1.83 1.88 1.82 1.73 1.65 1.61 1.62
1.51 1.47 1.49 1.42 1.33 1.33 1.35 1.28 1.19 1.21 1.29 1.32 1.35 1.38 1.49 1.41 1.30 1.22 1.16 1.06 0.98 0.97 0.95 1.00 1.12 1.13 1.20 1.27 1.33 1.42 1.51 1.59 1.69 1.78 1.83 1.85 1.88 1.94 2.03 2.07 1.96 1.76 1.62 1.55
1.61 1.49 1.40 1.26 1.26 1.32 1.31 1.25 1.20 1.19 1.30 1.45 1.42 1.38 1.42 1.34 1.29 1.22 1.14 1.07 1.05 1.04 1.06 1.06 1.11 1.13 1.18 1.27 1.35 1.38 1.42 1.46 1.48 1.55 1.66 1.75 1.75 1.78 1.86 1.95 1.97 1.85 1.69 1.58
1.73 1.60 1.42 1.28 1.32 1.46 1.50 1.45 1.35 1.25 1.21 1.37 1.45 1.37 1.33 1.24 1.14 1.17 1.19 1.17 1.21 1.21 1.22 1.22 1.25 1.20 1.24 1.32 1.39 1.44 1.43 1.47 1.46 1.43 1.43 1.49 1.55 1.61 1.68 1.78 1.84 1.78 1.67 1.54
1.80 1.77 1.64 1.47 1.37 1.39 1.44 1.47 1.41 1.32 1.23 1.26 1.32 1.36 1.34 1.28 1.17 1.14 1.16 1.18 1.23 1.24 1.26 1.32 1.37 1.36 1.42 1.46 1.48 1.48 1.43 1.41 1.43 1.43 1.45 1.48 1.53 1.60 1.62 1.66 1.70 1.62 1.50 1.38
1.69 1.62 1.55 1.44 1.34 1.31 1.32 1.32 1.30 1.28 1.23 1.23 1.26 1.27 1.29 1.35 1.34 1.29 1.21 1.20 1.21 1.18 1.17 1.19 1.28 1.33 1.44 1.57 1.61 1.57 1.45 1.36 1.31 1.32 1.40 1.46 1.53 1.61 1.65 1.64 1.58 1.49 1.40 1.26
1.58 1.52 1.45 1.35 1.31 1.29 1.29 1.27 1.27 1.24 1.19 1.17 1.27 1.36 1.36 1.35 1.43 1.40 1.33 1.35 1.42 1.43 1.30 1.20 1.28 1.25 1.30 1.54 1.71 1.71 1.56 1.43 1.36 1.33 1.33 1.36 1.40 1.47 1.52 1.50 1.45 1.36 1.25 1.18
1.55 1.54 1.54 1.50 1.40 1.39 1.37 1.29 1.28 1.26 1.22 1.24 1.32 1.36 1.42 1.39 1.44 1.51 1.51 1.46 1.46 1.54 1.53 1.43 1.30 1.22 1.20 1.41 1.73 1.67 1.58 1.47 1.35 1.27 1.27 1.30 1.34 1.41 1.41 1.36 1.29 1.26 1.22 1.19
1.65 1.69 1.67 1.61 1.52 1.41 1.32 1.25 1.29 1.33 1.30 1.34 1.42 1.43 1.46 1.42 1.38 1.49 1.63 1.48 1.36 1.46 1.53 1.49 1.31 1.21 1.21 1.39 1.67 1.65 1.57 1.50 1.37 1.27 1.26 1.27 1.29 1.35 1.37 1.34 1.28 1.19 1.18 1.19
1.95 1.97 1.83 1.63 1.55 1.42 1.32 1.27 1.25 1.26 1.30 1.38 1.38 1.41 1.56 1.57 1.51 1.48 1.45 1.41 1.36 1.46 1.45 1.38 1.31 1.23 1.20 1.29 1.39 1.46 1.40 1.31 1.23 1.17 1.13 1.17 1.22 1.29 1.31 1.31 1.29 1.25 1.26 1.27
2.02 1.95 1.82 1.63 1.56 1.38 1.20 1.17 1.17 1.20 1.28 1.38 1.46 1.55 1.77 1.78 1.68 1.71 1.52 1.23 1.19 1.33 1.30 1.23 1.27 1.23 1.17 1.14 1.26 1.33 1.27 1.23 1.17 1.08 1.02 1.06 1.14 1.22 1.28 1.23 1.21 1.22 1.19 1.15
1.81 1.73 1.64 1.50 1.50 1.43 1.33 1.27 1.24 1.27 1.32 1.36 1.43 1.59 1.83 1.94 1.72 1.44 1.33 1.27 1.22 1.21 1.15 1.17 1.20 1.19 1.17 1.10 1.23 1.32 1.30 1.29 1.25 1.20 1.11 1.13 1.16 1.19 1.22 1.17 1.13 1.11 1.09 1.10
1.79 1.63 1.49 1.49 1.60 1.62 1.52 1.43 1.41 1.46 1.47 1.45 1.44 1.54 1.70 1.91 1.87 1.45 1.18 1.07 1.12 1.11 1.06 1.16 1.21 1.22 1.08 1.01 1.09 1.26 1.36 1.40 1.41 1.34 1.27 1.33 1.35 1.36 1.32 1.25 1.25 1.24 1.20 1.15
1.72 1.66 1.60 1.60 1.60 1.65 1.66 1.66 1.72 1.76 1.79 1.84 1.79 1.70 1.76 1.85 1.72 1.47 1.22 1.04 1.04 1.10 1.06 1.14 1.21 1.22 1.11 1.09 1.12 1.21 1.31 1.42 1.44 1.41 1.38 1.37 1.37 1.43 1.46 1.41 1.38 1.34 1.24 1.16
1.66 1.56 1.54 1.55 1.57 1.64 1.76 1.90 2.01 2.01 2.05 2.18 2.18 1.90 1.80 1.85 1.80 1.65 1.42 1.26 1.26 1.28 1.27 1.23 1.15 1.11 1.17 1.25 1.25 1.20 1.25 1.37 1.39 1.39 1.45 1.41 1.36 1.34 1.36 1.33 1.29 1.23 1.12 1.03